METEOR 2-20 DEB

Satellite information

Favourite Embed

Satellite Type and Status

DEBRISIN ORBIT

Key statistics

Satellite METEOR 2-20 DEB at a glance.

Uptime

12639

Days in orbit

Revolutions

≈ 13.9

Per day

Orbit

LEO

Low Earth Orbit

Inclination

82.6

Latest

Satellite identification and parameters

Extended collection of information and parameters for METEOR 2-20 DEB.

Object identification

Identified? True

Debris? True

Object name: METEOR 2-20 DEB

International designator: 1990-086J

Object number (NORAD): 59999

Object ID (CCSDS): 59999

Country: COMMONWEALTH OF INDEPENDENT STATES (CIS)

Current information (Y/N): Y

RCS size: SMALL

Orbital parameters

Period: 103.418 minutes

Inclination: 82.5667 deg

SMA: 7298.348 km

Apoapsis: 931.537 km

Periapsis: 908.889 km

RAAN: 159.0099 deg

Eccentricy: 0.0015516

Argument of periapsis: 40.6649 deg

Mean anomaly: 319.5672 deg

Mean motion: 13.92406039 rev/day

Mean motion (dot): 0.00000827 rev/day2

B* drag term: 0.00063116 1/REarth

Two-line elements (TLE)

Creation date: May 3, 2025, 5:28 p.m.

Reference frame: TEME

Reference center: EARTH

Epoch: May 3, 2025, 10:12 a.m. UTC

TLE line 0: 0 METEOR 2-20 DEB

TLE line 1: 1 59999U 90086J 25123.42546366 .00000827 00000-0 63116-3 0 9990

TLE line 2: 2 59999 82.5667 159.0099 0015516 40.6649 319.5672 13.92406039443671

Live tracking on map

Real-time ground track for satellite METEOR 2-20 DEB.

In-orbit conjunctions

A list of the most updated potential collisions computed for object METEOR 2-20 DEB.

Target Orbit TCA Probability of collision Miss distance Type
COSMOS 2251 DEB LEO 2025-02-09 21:48:23 0.005258954 23.0 (m) DEBRIS
FENGYUN 1C DEB SSO 2025-01-07 02:06:09 0.000124941 721.0 (m) DEBRIS
FENGYUN 1C DEB SSO 2024-12-09 01:32:11 0.0005592607 248.0 (m) DEBRIS
METEOR 2-11 DEB LEO 2024-09-23 06:18:35 0.000222105 330.0 (m) DEBRIS
CZ-4B DEB SSO 2024-06-12 21:39:15 0.000274914 618.0 (m) DEBRIS

Associated space launch

Second generation soviet meteorological satellite

METEOR 2-20 DEB was lifted into orbit during the mission ‘Tsiklon-3 | Meteor-2 20’, on board a Tsiklon-3 space rocket.

The launch took place on Sept. 28, 1990, 7:30 a.m. from 32/1.

For more information about the launch, click the button.

Launch to space Tsiklon-3 | Meteor-2 20
Tsiklon-3 | Meteor-2 20

Agency: N/A

Status: Launch Successful

Launch date: Sept. 28, 1990, 7:30 a.m. UTC

Rocket: Tsiklon-3

Launch pad: 32/1

Location: Plesetsk Cosmodrome, Russian Federation

...

Latest news about this satellite

There are no fresh news available about this satellite. Check back as we update our databases every day.


Newsletter sign-up

Weekly statistics, charts and insights to help you stay on top of the space industry.